Theta_e
335 336 335 333 332 332 333 334 335 336 337 337 336 336 337 337 336 335 334 334 333 333 334 334 333 331 332 334 334 333 334 336 337 337 336 336 336 336 335 336 336 335 334 334 335 335 335 335 335 335 335 334 334 334 333 333 333 333 332 332 332 332 333 333 332 332 331 331 330 329 329 331 333 332 331 332 332 331 330 331 333 334 334 333 333
335 335 335 333 332 333 333 334 335 335 336 336 336 336 336 336 334 334 333 333 333 333 334 333 332 331 332 334 333 333 335 336 337 337 336 335 335 336 335 335 334 334 334 334 335 334 335 335 334 334 334 334 334 334 334 333 333 333 332 332 333 333 333 333 332 332 332 332 330 329 329 329 331 332 332 332 331 330 330 331 333 334 333 332 332
335 336 336 334 333 334 334 335 335 335 336 336 336 336 335 334 333 333 333 333 334 333 332 332 333 332 332 334 334 334 336 336 335 334 333 333 333 333 334 333 333 333 334 334 334 334 334 334 333 333 333 333 334 333 333 333 332 332 332 332 332 332 332 332 332 332 332 331 331 331 329 328 330 333 331 329 330 330 331 332 332 332 331 330 330
336 336 336 336 335 335 335 336 336 335 336 336 335 335 334 334 333 333 333 334 333 332 331 332 332 333 332 333 334 333 334 333 331 331 330 329 330 330 330 330 330 331 331 331 331 332 332 331 331 331 331 332 332 332 331 331 330 331 331 330 330 330 330 330 331 331 331 331 331 331 330 330 332 332 329 327 329 331 331 330 331 331 330 330 329
337 336 336 337 336 336 335 335 336 335 335 334 333 333 334 334 334 333 332 332 331 331 332 332 332 332 332 332 332 332 332 331 331 330 329 328 329 329 329 329 329 329 329 329 329 330 329 328 328 327 328 328 328 328 328 329 328 328 329 329 329 328 328 328 328 330 330 330 330 329 329 330 330 330 329 328 328 329 329 329 329 329 330 329 328
336 336 335 337 336 336 335 335 335 334 333 333 332 333 333 333 333 332 331 331 331 332 333 332 332 332 331 332 333 333 332 331 331 331 329 328 328 328 328 328 328 328 328 327 327 326 325 324 324 323 322 322 323 323 323 324 324 324 325 325 325 325 324 324 326 327 329 329 329 329 328 328 328 328 328 328 327 326 327 327 327 328 329 329 328
336 336 335 336 336 336 336 335 334 334 333 333 333 333 333 333 333 332 330 330 331 331 332 332 333 333 333 334 334 333 332 331 330 329 328 327 326 326 326 326 326 326 325 324 322 321 321 320 319 318 317 318 319 317 316 317 318 318 318 318 319 320 319 320 321 322 324 325 326 327 327 326 325 325 326 327 326 325 325 326 327 327 329 329 329
335 335 335 335 336 335 335 335 334 334 334 334 334 333 333 333 332 331 330 331 332 332 332 333 333 332 332 332 332 332 331 329 327 326 325 325 325 325 324 324 324 323 321 319 317 316 317 315 315 315 314 315 315 313 313 314 314 313 313 313 314 315 315 316 316 316 316 317 318 319 321 321 321 322 323 323 323 323 323 323 324 325 325 326 326
335 335 334 335 336 335 335 335 334 335 334 334 334 334 334 333 332 332 332 332 333 333 332 332 332 331 330 330 329 328 327 326 325 324 323 323 323 323 323 321 320 319 317 315 314 314 314 313 313 313 312 312 312 311 312 312 311 311 311 311 311 312 312 312 312 312 312 312 312 313 314 316 316 318 319 319 318 319 320 320 320 320 319 318 319
336 335 335 335 335 334 334 334 334 334 334 334 334 334 333 333 332 333 332 331 332 332 331 330 329 329 329 328 327 325 325 325 324 323 322 321 320 320 320 318 316 315 313 313 312 312 312 311 311 310 310 310 310 309 309 309 309 308 308 308 308 308 308 308 309 309 309 310 310 311 312 314 314 315 315 315 314 316 316 316 316 318 318 315 314
336 335 335 335 334 333 333 333 333 333 333 333 333 333 332 331 331 331 331 330 330 330 329 328 328 328 327 327 325 325 325 324 323 322 321 320 319 318 316 315 313 311 311 311 310 310 309 309 309 308 307 307 307 306 306 305 305 304 304 304 304 304 304 304 304 304 305 306 307 310 311 313 313 312 311 312 312 313 314 314 314 315 314 312 311
336 335 335 335 333 333 333 332 331 331 332 332 332 331 329 329 330 330 329 328 328 327 327 327 326 325 325 325 324 324 324 323 322 322 320 320 318 316 315 314 311 309 309 308 307 307 306 305 305 304 304 303 303 302 301 301 301 301 301 300 300 300 300 300 300 300 300 301 304 308 311 312 310 308 310 310 310 310 311 312 311 310 309 305 303
336 335 334 334 333 333 332 331 330 331 331 330 329 328 327 328 328 327 326 326 325 325 325 324 323 322 322 322 322 322 322 322 321 320 318 318 316 315 314 312 309 307 306 304 303 303 302 302 301 301 301 300 300 299 299 299 299 299 298 298 298 298 298 298 298 298 298 299 303 308 311 311 306 306 310 309 308 309 310 310 309 308 308 306 303
335 334 333 333 332 332 331 330 329 329 328 327 327 326 327 326 326 325 324 324 323 322 322 321 321 320 320 320 320 320 319 320 319 317 316 316 314 314 313 309 305 304 303 301 300 299 300 300 299 299 299 298 298 298 298 298 298 298 298 298 297 297 297 297 298 298 298 299 301 307 310 306 300 303 305 304 307 309 308 309 308 307 308 307 306
334 333 333 332 331 330 330 329 328 327 327 327 326 326 325 324 324 323 322 322 321 321 320 319 319 319 319 318 318 317 317 317 316 315 314 313 313 313 311 306 302 301 299 299 299 298 298 298 298 298 298 298 298 297 298 298 297 297 297 297 297 296 296 297 298 298 299 300 299 302 306 301 296 299 299 301 306 307 306 307 307 307 307 306 306
333 332 332 331 330 329 329 328 328 327 327 327 326 325 324 323 322 322 321 320 320 319 318 318 317 317 317 316 316 315 314 314 313 313 312 312 312 310 306 301 299 298 298 298 298 297 297 297 297 297 297 297 297 297 297 297 297 297 297 297 297 297 296 296 296 296 298 301 298 296 299 297 295 297 297 299 302 302 302 302 304 306 306 306 306
333 332 331 330 330 329 328 328 328 327 326 326 325 324 323 322 321 320 320 319 318 317 316 316 315 315 314 314 314 313 312 312 311 311 311 311 310 305 300 298 298 297 297 297 297 297 297 297 297 297 297 297 297 297 297 297 297 297 296 297 299 300 299 295 295 296 299 303 301 295 295 295 296 296 296 297 298 297 297 297 299 303 304 304 305
333 332 331 330 329 328 328 327 327 326 325 325 324 323 322 321 320 319 319 318 317 316 314 314 313 313 313 313 312 312 312 311 310 310 310 308 304 300 298 298 297 297 297 296 296 296 296 296 296 296 297 297 297 296 296 296 296 297 297 299 300 300 300 298 297 296 299 303 302 297 294 295 296 296 297 299 299 297 296 297 298 300 302 303 303
333 331 330 329 328 328 327 327 326 325 324 324 323 322 322 320 319 318 318 317 316 314 313 312 311 312 312 312 312 312 312 311 311 310 309 305 301 299 298 297 297 297 297 296 296 296 296 296 296 296 296 296 296 296 296 295 295 296 296 299 301 299 300 302 302 300 299 302 302 300 297 296 297 297 297 299 299 297 296 297 298 299 300 301 301
332 330 329 329 328 327 327 326 325 324 323 323 322 321 320 319 318 318 317 316 314 313 312 311 311 312 312 312 311 311 311 311 310 308 305 301 299 298 297 297 296 297 297 297 296 296 296 295 295 296 296 295 295 296 296 296 295 295 296 299 301 300 300 303 303 303 303 302 302 301 298 297 297 296 296 297 297 296 297 297 298 298 299 299 300
331 330 329 328 328 327 325 325 324 323 323 322 321 320 319 318 317 317 316 314 313 312 311 311 311 311 311 311 311 311 310 310 307 304 301 299 298 297 297 297 296 296 297 297 296 296 295 295 295 295 295 295 295 295 296 296 295 296 296 297 298 299 300 302 303 303 303 302 302 300 298 296 296 296 296 296 296 296 296 297 298 298 298 299 299
331 330 329 328 327 326 325 324 323 322 322 321 320 319 318 317 317 316 315 313 312 311 311 311 311 311 310 310 310 310 309 307 303 300 299 298 297 296 296 296 296 296 297 296 297 297 295 295 295 295 295 295 295 295 295 295 296 297 298 298 299 300 302 303 303 302 301 301 302 301 299 297 297 297 297 296 296 296 296 297 297 297 298 298 299
330 329 328 327 326 325 324 323 322 322 321 320 319 318 317 317 316 315 314 313 312 311 311 311 311 310 310 310 309 308 305 303 300 299 298 297 296 296 296 296 295 296 296 296 296 296 295 295 295 295 295 295 295 295 294 294 295 297 299 301 302 302 303 304 303 302 301 301 301 301 299 298 298 297 296 296 296 296 296 296 296 297 297 298 298
330 329 328 327 325 324 323 322 322 321 320 320 319 318 317 316 315 314 313 312 311 311 311 311 311 310 310 309 308 305 302 300 299 299 298 297 296 296 296 295 296 297 298 297 296 295 294 294 294 294 294 294 294 294 294 296 297 296 298 302 304 303 303 303 302 301 301 301 300 300 299 298 297 296 295 295 295 295 295 295 295 296 297 297 297
329 328 327 325 324 323 322 322 321 320 320 319 318 317 316 315 315 314 313 312 311 311 311 311 310 310 309 308 305 302 300 299 298 298 298 296 295 295 295 296 297 298 299 300 298 295 294 294 294 294 294 294 294 294 294 297 300 299 298 300 302 302 301 301 300 300 301 301 300 300 299 297 296 296 295 295 294 294 294 294 295 296 296 297 297
328 327 326 324 323 322 322 321 321 320 319 319 318 318 316 315 314 313 312 312 311 311 311 310 310 309 308 304 302 300 298 298 298 297 296 295 295 296 296 296 296 296 297 297 296 294 294 294 294 294 294 294 294 294 293 294 298 301 301 300 301 301 300 300 301 301 300 300 300 300 299 297 296 296 295 295 294 293 294 294 295 296 296 296 296
327 326 325 324 323 322 322 321 320 320 319 318 318 317 316 314 313 313 312 312 311 311 310 310 309 307 304 301 299 298 297 297 297 296 295 295 296 297 297 297 298 298 296 294 294 294 294 294 294 294 294 294 294 293 294 294 294 298 301 301 301 302 301 301 301 301 300 300 299 299 299 297 296 296 295 294 293 293 294 294 295 296 296 296 296
326 325 324 323 322 322 321 321 320 320 319 317 317 317 315 314 313 312 312 311 311 310 309 308 307 304 301 299 297 296 296 296 296 296 295 295 296 296 297 298 300 300 299 297 294 293 293 293 293 294 293 293 294 293 293 294 294 296 299 301 301 301 301 301 301 300 300 298 297 298 299 298 296 296 295 294 293 293 293 294 295 296 296 296 296
325 324 323 322 321 321 321 320 319 320 318 317 317 316 314 313 313 312 311 311 310 310 308 306 305 303 300 297 297 296 296 296 296 296 295 295 295 295 295 296 298 300 301 300 296 293 293 293 293 293 293 293 294 294 293 293 294 296 297 300 301 301 301 300 300 300 299 297 296 296 298 297 296 295 294 293 293 293 293 294 295 296 296 296 296
325 324 323 322 321 321 320 319 319 319 318 317 315 315 314 312 312 312 311 310 310 309 307 306 304 300 298 296 296 296 295 295 295 295 295 295 295 295 295 296 296 297 299 298 295 293 293 293 293 293 293 294 293 293 293 293 294 295 297 299 301 301 300 300 300 300 299 298 297 296 296 296 295 295 294 293 293 293 293 293 295 296 296 296 296
324 324 323 322 321 321 320 319 319 318 318 316 315 314 313 312 312 311 310 310 309 308 307 305 302 298 296 296 296 295 295 295 295 294 295 295 295 295 295 295 294 294 295 295 293 293 293 293 293 293 293 293 293 293 293 293 294 295 296 299 301 301 300 300 300 300 299 299 298 296 295 295 295 294 294 292 292 293 292 293 294 296 297 296 296
324 323 323 322 321 320 319 318 318 318 317 316 314 313 312 312 311 310 309 309 309 308 306 303 300 298 296 296 295 295 295 295 295 295 295 295 295 295 294 294 294 294 294 294 293 293 293 292 293 293 293 293 293 293 293 293 294 295 296 298 300 301 300 299 299 300 299 299 298 296 295 294 294 294 293 292 292 292 292 292 293 295 296 296 296
324 323 322 321 321 320 319 318 318 317 316 315 315 314 312 311 311 310 309 308 307 306 304 302 301 299 297 296 296 295 295 295 296 295 295 296 296 294 294 294 294 294 293 294 295 293 293 293 293 293 293 293 293 293 293 293 293 295 296 298 300 301 300 299 299 299 299 299 298 296 295 295 294 293 292 292 291 292 292 292 293 294 296 296 295
323 322 322 321 320 319 318 318 318 317 316 315 314 313 312 311 310 309 308 307 305 304 303 302 302 301 299 299 298 297 296 296 296 296 297 296 295 293 293 293 293 293 293 294 295 294 293 293 292 292 292 292 292 292 292 293 293 295 297 299 300 300 300 300 299 298 299 299 298 296 295 295 294 292 291 291 291 292 292 292 292 294 295 295 295
323 322 321 321 320 319 318 318 318 317 315 314 313 312 311 310 310 309 308 306 305 304 303 302 302 301 301 301 300 297 296 296 296 297 297 295 293 294 294 294 294 294 293 293 293 294 294 293 292 292 292 292 292 292 292 292 293 294 296 298 300 300 300 300 298 297 299 299 297 296 295 295 294 292 291 291 291 291 292 292 292 293 294 295 295
323 322 321 320 319 319 318 318 318 316 314 313 312 311 310 310 310 309 307 305 304 303 303 302 302 301 301 302 300 297 297 297 297 297 295 294 295 296 295 295 294 294 293 293 293 294 294 294 293 292 292 292 292 292 292 292 292 293 294 296 298 299 299 300 298 297 298 299 297 296 295 295 294 292 291 291 291 291 291 292 293 293 294 294 294
323 322 321 320 319 319 318 318 317 316 314 313 311 310 310 309 309 308 306 304 303 303 302 302 301 301 301 301 299 298 298 298 297 296 295 294 295 295 295 294 294 293 293 293 293 293 293 294 293 292 292 292 292 291 292 292 292 292 292 293 295 297 298 299 299 297 298 298 297 296 296 295 294 292 291 292 292 292 292 293 293 293 294 294 294
323 321 321 320 319 318 318 317 316 314 313 312 311 310 309 309 308 307 305 304 303 302 302 301 301 301 301 301 299 298 298 298 297 295 295 295 295 295 296 295 294 294 294 293 293 292 292 292 292 292 292 292 292 291 292 291 291 292 292 292 293 294 295 297 298 298 297 297 297 297 296 296 294 292 292 292 292 292 293 294 294 294 294 294 294
322 321 320 320 319 318 317 316 315 314 313 312 310 310 309 309 308 307 305 303 303 302 301 301 301 301 301 300 299 299 299 299 297 295 295 296 297 297 298 297 297 297 298 298 296 294 292 292 292 292 292 292 292 291 291 291 291 291 291 292 292 292 293 294 296 297 298 297 297 297 297 295 293 292 292 292 293 293 294 294 294 294 294 294 294
322 321 320 320 318 317 316 315 314 313 313 311 310 310 309 308 307 306 304 303 302 301 301 301 301 301 300 300 299 299 300 299 297 295 296 297 297 297 298 299 299 300 300 299 298 296 295 294 293 292 292 292 292 291 291 291 291 291 291 291 291 291 292 292 293 295 296 297 296 296 295 293 292 292 292 293 293 293 294 294 294 294 294 294 294
321 321 320 319 318 317 316 315 314 313 312 311 310 309 308 308 307 305 304 303 302 301 301 301 301 300 300 300 300 300 299 298 296 296 296 296 297 299 300 300 300 300 299 298 298 297 297 297 296 296 295 294 293 292 291 291 291 291 291 291 291 291 291 291 291 292 293 295 295 293 292 292 292 292 292 293 293 294 294 294 294 294 294 294 294
321 320 320 319 318 317 315 314 314 313 312 311 310 308 308 307 306 304 303 302 301 301 301 300 300 301 300 300 300 299 298 296 295 296 296 296 298 300 301 300 299 298 298 299 300 300 300 300 299 299 298 297 296 294 292 291 291 291 291 291 291 291 291 291 291 291 292 293 293 292 292 293 292 292 293 293 293 294 294 295 294 294 294 294 294
321 320 319 319 318 316 315 314 314 313 312 310 309 308 307 306 305 304 303 302 301 301 301 301 301 301 301 300 299 298 297 295 295 295 295 296 298 300 299 298 297 297 298 300 300 300 300 300 300 300 300 299 297 296 293 291 291 291 291 291 291 291 291 291 291 291 291 292 292 292 293 293 293 294 294 294 293 293 294 294 294 294 294 294 294
321 320 319 319 317 316 315 314 313 312 311 309 308 307 306 305 304 303 302 301 301 301 301 301 301 301 301 300 298 297 296 295 295 295 295 296 298 299 298 298 299 300 300 300 300 300 300 300 300 300 299 298 297 296 294 291 290 291 291 291 291 291 291 291 290 291 291 292 292 293 294 294 295 295 295 294 293 293 293 294 294 294 294 294 294
321 320 319 319 317 316 315 314 313 312 310 308 307 306 305 304 303 302 302 301 301 301 301 301 301 301 299 298 296 295 295 295 295 295 294 296 298 299 300 301 302 302 301 300 300 300 300 300 300 300 300 298 298 297 294 291 290 291 291 291 291 290 290 290 290 290 291 292 293 294 295 295 295 295 295 294 294 293 293 293 294 294 294 294 294
320 320 319 318 317 316 315 313 313 312 310 307 306 305 304 304 303 302 302 302 301 301 301 301 300 299 298 296 295 295 295 295 295 295 295 296 299 300 301 301 301 301 301 300 300 299 299 300 300 300 299 299 298 297 294 291 291 291 291 291 291 290 290 290 290 291 292 292 293 295 295 295 295 295 295 294 294 293 293 293 293 293 293 294 294
320 319 318 317 316 315 314 313 312 311 308 306 305 304 304 303 302 302 302 301 301 301 301 301 300 298 297 296 295 295 295 295 295 296 297 299 301 301 301 301 301 301 300 300 299 299 299 299 299 300 300 299 299 297 294 291 291 291 291 291 291 290 290 290 291 292 293 294 294 295 295 295 295 295 295 294 293 294 293 293 293 293 293 293 293
319 318 317 316 315 314 313 312 311 308 306 305 304 304 303 303 302 302 301 301 301 301 301 300 299 298 298 296 295 295 295 295 297 299 300 301 301 301 301 301 301 300 300 300 299 299 300 300 299 299 299 299 299 297 294 291 291 291 291 291 291 291 291 292 292 293 294 294 295 295 295 295 295 295 295 294 293 293 293 293 293 293 292 293 293
318 317 316 315 314 312 312 311 309 306 305 304 304 304 303 302 302 301 301 301 301 301 300 299 299 299 298 296 295 295 295 297 300 301 301 301 301 301 301 301 301 300 300 300 299 299 300 300 300 299 299 299 298 295 292 291 292 292 292 291 292 292 293 293 293 294 294 295 295 295 295 295 295 295 295 294 293 294 293 293 293 293 292 293 292
317 317 315 314 312 311 310 309 307 306 305 304 304 303 303 302 302 302 302 301 301 300 300 299 299 298 297 296 296 296 297 299 301 301 301 301 301 301 301 301 301 301 301 300 299 298 297 298 298 297 296 296 295 293 292 292 292 292 292 292 292 293 294 294 294 294 294 295 296 296 295 295 295 295 295 294 293 294 293 293 293 292 292 292 292
317 316 315 313 312 311 309 308 306 305 304 304 304 303 303 302 302 302 302 301 301 300 300 300 299 298 298 297 297 297 300 301 301 301 301 301 301 301 301 300 298 298 298 297 297 295 294 294 294 294 293 293 292 292 292 292 292 292 292 292 292 293 294 295 295 295 295 295 296 296 296 295 295 295 294 294 294 293 293 293 293 292 292 292 292
Wind_Speed
26 27 26 24 21 19 20 20 20 19 17 15 15 14 13 13 13 14 14 14 14 13 10 9 7 5 5 4 3 2 2 2 2 3 4 5 5 4 4 4 3 3 3 2 2 2 2 2 1 1 2 2 3 4 4 5 6 6 7 8 8 9 9 10 12 13 14 15 16 16 14 12 11 12 13 13 13 14 13 13 13 15 16 15 16
23 24 25 25 22 21 21 20 19 19 19 18 16 16 15 15 15 16 15 15 14 13 11 10 7 6 6 5 4 4 3 3 4 4 4 5 5 5 5 5 5 4 3 3 3 3 3 4 4 2 1 1 1 3 3 3 4 5 5 6 6 7 8 9 11 12 13 14 17 18 16 13 11 8 8 10 13 15 15 15 15 15 16 15 16
20 20 22 24 23 22 21 20 19 19 19 19 18 17 17 16 16 16 16 15 13 11 10 9 7 5 5 4 4 4 5 5 6 5 5 6 6 6 6 6 5 4 5 5 5 6 6 6 6 5 3 3 3 3 4 4 4 4 5 6 6 6 5 6 8 11 12 14 15 16 17 16 11 5 7 10 12 13 14 14 14 15 15 14 14
21 20 20 23 24 24 22 21 21 19 20 20 18 18 18 18 18 17 16 15 12 10 9 8 7 6 5 4 3 5 6 6 5 4 5 7 8 8 6 5 5 6 7 8 9 9 9 9 9 9 7 6 7 8 8 7 7 7 7 9 10 10 7 6 7 8 10 12 12 14 14 12 10 12 18 16 9 7 10 11 13 15 15 14 14
23 22 21 22 22 23 23 21 21 21 20 20 19 19 19 19 18 17 16 15 12 10 9 8 8 7 4 4 3 4 4 3 3 4 6 7 7 7 5 5 6 7 8 9 9 10 9 9 9 9 8 7 8 9 9 9 10 10 9 10 12 12 12 10 9 7 7 8 9 11 11 9 12 19 23 19 10 10 14 13 12 14 14 15 16
22 22 22 21 20 22 24 23 22 22 22 22 21 20 19 19 18 18 17 15 13 11 9 7 6 6 5 5 7 6 5 4 4 4 7 8 6 6 6 5 6 7 7 7 6 7 7 7 6 5 3 3 3 5 5 5 6 7 8 10 10 11 11 10 11 9 6 6 4 5 6 8 15 19 20 20 19 18 17 16 14 13 13 14 16
21 21 20 21 21 21 23 23 23 24 24 23 22 21 20 20 20 18 17 15 13 12 10 7 6 7 8 8 8 7 8 9 9 9 8 7 7 8 6 5 6 5 5 4 4 5 4 4 3 1 1 2 2 2 3 3 3 4 5 7 8 10 10 9 10 10 9 9 8 7 8 9 13 15 16 20 23 22 20 18 16 14 12 11 13
21 21 20 21 20 21 22 22 24 25 25 24 24 23 22 21 20 18 17 16 14 13 11 9 7 6 7 8 9 9 10 10 9 8 8 6 7 9 8 6 5 3 3 2 2 3 3 2 3 3 4 4 4 6 6 5 4 5 7 7 7 9 10 10 11 12 12 12 12 12 12 13 14 13 13 15 18 22 25 25 23 22 20 15 16
20 21 20 20 19 21 24 24 25 26 25 25 24 24 22 20 19 18 17 16 15 14 11 9 6 6 8 9 10 9 8 6 5 5 5 6 7 9 6 2 3 3 3 4 5 5 5 6 7 7 7 6 6 7 6 5 5 6 6 7 7 7 8 9 11 12 12 12 13 13 12 13 13 11 12 14 14 17 22 26 27 28 28 24 23
19 20 20 20 20 23 26 24 25 26 25 24 23 21 19 17 15 14 13 13 13 12 11 10 6 6 7 6 6 5 4 3 3 2 2 3 4 5 3 5 6 6 6 8 8 9 9 8 9 9 9 8 8 8 7 7 7 7 7 7 7 7 8 9 10 10 10 10 11 11 11 12 12 12 14 17 16 15 17 22 24 24 26 27 25
20 20 20 20 20 22 24 21 24 26 24 23 20 18 16 14 13 12 11 13 13 14 15 14 11 10 8 5 4 4 5 4 3 2 2 2 2 1 5 7 8 10 10 9 10 10 10 9 10 10 10 9 9 9 8 8 8 9 9 8 8 8 9 9 9 9 10 10 10 10 12 12 13 15 17 18 17 17 19 21 22 21 24 26 26
22 20 21 22 22 23 22 21 22 23 23 22 20 18 17 15 14 14 13 13 14 14 15 14 11 11 10 8 7 7 7 7 7 6 5 3 2 4 7 7 9 12 12 11 12 11 11 11 11 11 11 10 10 10 10 9 10 9 9 9 9 9 9 9 10 9 10 10 10 13 15 13 13 15 16 17 16 17 18 19 22 24 25 27 27
21 20 22 22 22 22 21 21 20 21 23 22 19 18 18 15 13 14 14 13 13 12 11 9 8 8 8 8 9 9 9 9 9 8 7 6 5 6 7 8 11 14 13 14 13 12 12 12 11 11 11 11 11 11 10 10 10 9 9 9 10 10 10 11 11 11 12 11 11 14 13 12 12 13 14 15 16 17 18 19 23 24 25 28 29
19 20 24 22 21 22 20 20 20 22 24 23 21 17 15 14 13 12 12 10 10 9 8 8 7 6 6 7 8 9 11 10 8 8 8 8 8 8 7 11 14 14 14 14 14 13 12 12 12 12 12 12 11 11 11 10 10 10 10 10 12 13 12 12 13 13 13 13 12 13 11 11 11 12 12 12 15 18 19 20 24 25 25 25 27
19 20 24 23 21 22 21 22 23 24 23 22 21 17 14 14 12 11 11 9 8 8 7 8 8 8 7 8 8 8 10 11 10 10 10 10 11 9 11 14 15 15 14 14 14 14 13 13 13 12 13 12 12 12 12 12 12 12 11 12 14 15 14 14 14 14 14 14 14 12 11 12 12 13 13 13 14 16 17 18 21 25 27 27 27
22 23 25 23 22 23 24 24 25 23 21 20 18 17 15 14 13 13 12 10 8 8 7 7 8 10 10 10 10 9 10 11 11 11 12 12 11 12 15 16 16 16 15 14 14 14 14 13 13 13 13 13 13 13 13 13 14 13 13 15 16 16 16 16 15 14 14 15 15 14 13 13 13 14 15 13 13 14 14 15 15 18 23 27 28
25 26 25 22 21 23 24 24 24 22 20 19 18 18 17 16 16 15 13 11 9 7 7 8 9 10 10 9 9 9 10 10 11 12 12 13 13 16 18 17 17 17 16 15 14 14 14 14 14 13 13 13 14 14 14 14 15 15 16 16 16 16 16 17 16 16 16 15 15 16 15 14 14 15 16 15 15 16 15 15 14 15 18 21 24
26 26 25 22 21 21 23 23 22 22 21 20 20 18 17 17 16 13 11 10 8 7 7 9 10 11 11 11 10 10 10 10 12 13 13 15 17 18 18 17 17 17 16 15 14 14 15 15 15 14 14 14 15 16 16 15 16 16 17 17 16 15 15 16 17 17 16 15 14 17 17 16 15 15 16 16 17 18 17 16 16 17 17 18 20
27 26 26 25 22 22 23 23 22 22 21 20 19 18 17 17 14 11 10 8 6 7 9 10 11 11 12 13 11 11 11 11 12 14 14 16 19 18 17 17 17 16 16 16 15 15 15 15 16 16 15 15 15 17 17 16 16 17 17 17 16 15 15 15 16 16 16 15 14 16 18 16 15 15 15 15 17 18 18 18 19 19 18 17 19
28 28 28 26 23 23 25 25 23 21 21 20 19 18 17 16 14 11 9 7 7 9 11 12 13 13 14 14 12 12 12 13 14 16 17 18 18 18 17 17 16 16 15 15 15 15 15 15 16 16 16 16 16 16 17 17 17 17 17 16 14 14 15 14 14 15 15 15 14 15 17 16 15 16 16 16 20 22 23 22 22 21 20 20 20
28 27 27 26 26 26 26 25 22 20 20 20 19 19 18 15 13 11 8 7 10 11 12 14 15 15 15 15 14 14 13 14 16 18 18 18 18 18 17 17 16 15 15 15 16 15 14 15 15 15 15 15 15 16 16 16 16 16 16 16 15 14 14 14 14 14 14 13 13 15 17 17 16 17 19 20 24 27 26 24 23 22 22 22 22
28 27 27 27 28 28 26 25 23 21 21 20 19 19 17 14 12 10 8 10 12 12 13 15 15 15 16 16 15 14 14 15 18 18 18 17 17 17 16 16 16 16 15 15 15 15 14 14 14 14 14 14 15 15 15 15 15 14 15 15 15 14 14 14 14 13 13 13 14 15 18 19 18 19 20 22 25 28 28 26 25 23 23 23 23
29 29 28 29 29 29 27 25 24 22 21 21 20 19 16 13 12 11 11 12 13 13 14 15 15 15 17 16 14 15 16 18 19 18 18 18 17 16 15 15 16 16 15 14 14 13 14 13 13 13 13 13 14 14 14 15 14 13 14 14 13 13 14 13 13 13 14 14 14 15 17 18 18 19 21 23 26 28 29 29 27 25 23 23 23
31 31 30 30 30 28 27 25 24 22 22 21 20 19 15 13 14 15 14 13 13 14 15 15 16 17 16 15 16 18 19 19 19 18 18 18 17 17 16 15 15 16 15 14 13 12 12 12 13 13 13 13 12 11 12 14 14 13 13 13 12 12 12 12 11 13 13 14 14 14 16 17 18 21 23 25 27 30 31 31 29 26 24 23 23
32 32 31 31 30 29 27 26 24 23 23 22 20 18 16 15 16 16 17 16 14 15 16 17 17 17 16 17 18 19 19 19 19 18 18 18 17 17 16 15 15 15 14 13 12 12 12 12 12 12 12 12 12 11 10 12 14 13 12 13 12 11 12 11 12 14 14 13 14 14 16 18 21 24 25 27 29 31 32 32 30 27 23 23 24
34 33 32 31 30 28 27 26 25 24 24 23 21 18 16 16 17 17 17 18 17 17 18 18 18 17 17 19 20 20 19 19 19 18 18 18 17 16 15 15 14 14 13 12 12 12 12 12 12 12 12 12 12 12 11 11 12 12 12 12 12 12 13 13 13 14 14 14 14 13 15 19 23 25 25 27 31 32 32 32 30 26 23 23 24
34 33 31 31 30 28 26 26 25 24 24 23 22 19 17 18 19 19 18 18 18 18 19 18 18 18 19 21 21 20 19 19 19 19 18 18 17 16 16 15 14 13 13 12 12 12 12 12 11 11 11 12 12 12 12 12 11 12 13 13 12 12 13 14 13 12 13 13 13 11 15 20 23 24 24 27 30 32 33 32 29 26 25 25 27
33 33 32 31 30 28 27 27 26 25 24 23 21 20 20 20 20 20 19 19 20 20 19 19 19 20 21 21 21 20 19 19 19 19 18 17 16 15 15 15 14 14 12 11 11 12 12 12 12 12 12 11 12 13 14 13 12 11 12 12 12 12 12 12 11 11 12 13 14 13 14 19 22 22 24 27 30 31 33 31 27 25 26 27 29
34 32 32 31 30 29 29 28 27 26 25 24 22 21 21 22 21 21 20 21 21 21 21 21 21 21 22 22 21 21 20 19 19 18 17 16 16 15 14 14 14 14 13 11 10 12 13 12 12 12 12 11 12 14 15 14 12 11 11 13 13 12 11 11 11 10 12 14 17 17 15 16 20 22 24 27 29 30 31 30 26 25 26 28 29
34 32 32 31 30 30 30 28 27 27 25 24 24 24 23 23 22 21 21 22 22 22 22 22 22 22 22 22 21 20 20 19 18 17 17 17 16 16 14 13 13 14 13 11 11 12 12 12 12 12 13 13 14 15 15 14 12 12 12 13 13 11 10 11 11 10 12 14 17 21 19 17 20 23 25 29 29 29 30 28 24 23 25 28 30
31 31 31 30 29 30 30 29 28 28 26 24 24 24 24 23 23 22 22 22 22 22 22 21 22 22 22 22 21 21 20 19 18 17 17 16 16 15 14 13 13 14 13 12 12 12 12 12 12 13 13 14 15 15 14 13 12 11 12 13 13 10 9 11 10 10 13 13 15 22 23 20 21 23 27 30 30 30 31 28 23 21 22 26 29
31 32 31 31 31 31 31 30 29 28 27 25 23 23 23 23 23 23 22 22 22 22 22 22 22 22 22 22 21 21 20 19 18 17 16 16 15 14 14 13 14 14 13 13 13 13 13 12 13 13 13 14 14 14 14 13 12 11 11 13 14 10 9 11 11 10 12 12 15 22 23 22 23 24 27 31 31 30 31 29 24 19 18 22 26
33 32 31 31 32 31 31 31 29 28 28 25 23 23 23 23 23 23 23 23 22 22 22 22 22 22 22 22 21 21 20 19 18 17 16 16 15 15 14 14 14 14 13 13 13 13 13 13 13 13 13 14 14 14 14 13 12 12 12 13 13 10 9 11 11 11 11 11 16 23 23 22 25 26 28 30 30 30 31 30 26 20 16 19 24
34 33 31 31 33 32 31 31 29 28 29 25 22 22 22 23 23 23 23 23 23 23 23 22 22 21 21 21 21 21 20 19 18 18 17 16 15 15 15 15 15 14 13 13 13 12 13 13 13 13 13 14 14 14 14 13 13 12 12 12 12 10 9 10 11 11 10 11 18 22 22 23 26 28 29 29 28 29 29 30 29 24 18 20 26
34 33 32 33 34 33 33 31 28 28 28 25 23 24 24 23 23 23 23 24 23 24 23 22 22 22 21 20 20 20 20 19 19 17 17 17 16 16 16 15 14 14 13 12 12 12 12 12 13 13 13 13 14 14 14 14 13 12 10 11 10 8 8 8 12 12 8 11 18 21 22 24 26 29 29 27 25 26 27 29 31 27 22 23 27
35 34 34 35 35 34 33 31 28 29 30 27 25 26 25 23 23 23 24 24 24 24 23 23 23 22 21 20 20 20 20 19 19 18 18 18 17 16 16 15 14 13 13 12 12 12 11 11 12 12 13 13 14 14 14 14 14 12 9 10 8 5 5 6 11 12 9 11 18 21 22 25 27 29 28 24 22 24 27 29 32 31 27 27 29
34 33 33 35 34 33 33 31 29 30 31 28 26 26 25 24 24 24 24 24 24 24 24 24 23 22 21 21 21 21 20 20 19 19 19 19 18 17 16 15 15 14 13 12 12 11 11 10 10 11 12 13 13 14 14 14 14 13 11 10 8 4 3 3 6 11 11 12 17 20 22 24 26 28 26 22 21 24 28 30 32 34 33 32 33
34 33 33 34 33 33 34 32 30 31 31 30 28 27 25 25 25 25 25 25 25 25 25 24 23 23 22 21 21 21 21 20 19 19 19 19 18 17 15 14 14 13 12 12 11 11 12 11 10 10 12 13 13 13 14 13 14 14 12 12 11 8 5 3 4 9 11 13 17 19 21 24 25 25 24 21 21 25 28 30 33 35 35 35 36
34 33 33 34 34 35 34 32 32 32 31 30 28 26 25 25 25 26 26 26 26 26 25 25 24 23 22 21 21 21 21 20 20 20 20 19 18 17 15 14 13 12 10 9 8 9 11 11 11 11 12 12 12 13 13 14 14 14 13 13 13 12 10 8 6 8 9 12 15 17 19 22 23 23 24 23 23 25 28 30 33 35 35 36 37
34 33 34 34 34 36 35 33 34 33 30 28 26 25 25 25 26 27 27 27 27 26 26 25 24 23 23 22 21 21 21 20 20 21 20 19 19 17 15 13 11 10 9 8 7 7 8 10 11 12 12 12 13 13 14 14 14 13 13 13 13 13 13 11 10 9 9 10 14 15 16 19 22 25 26 25 24 26 28 29 32 34 35 36 36
34 34 35 36 35 36 35 34 34 31 29 27 25 25 26 27 27 27 27 27 27 27 26 26 25 24 23 22 22 22 21 21 21 21 20 19 19 17 14 12 10 10 10 9 7 7 7 7 9 10 11 12 13 14 14 14 13 13 12 12 13 13 13 13 12 12 11 12 15 15 16 20 24 27 29 28 27 27 27 29 32 34 34 34 34
35 35 36 37 36 35 34 33 32 29 28 27 26 26 28 27 27 27 27 28 28 27 27 27 26 25 24 23 23 22 22 22 21 21 20 19 18 16 14 12 13 12 11 8 6 5 3 4 6 7 8 10 12 13 13 13 12 11 11 11 12 13 13 14 14 13 14 14 15 16 19 23 26 27 29 30 30 29 28 28 30 32 33 32 31
38 38 39 38 36 35 35 33 31 29 29 27 27 29 29 28 28 28 28 29 28 28 28 27 26 25 24 24 24 23 22 23 22 21 20 19 17 15 13 13 12 12 11 9 7 6 3 2 3 3 4 7 10 11 12 12 11 10 10 10 11 12 13 14 14 14 15 14 14 18 21 24 26 27 29 30 30 29 28 27 28 30 31 30 31
40 41 40 37 35 35 35 33 31 30 29 28 29 30 30 28 29 29 29 30 29 29 28 27 27 26 25 25 25 24 23 23 21 21 21 19 17 15 13 12 11 9 8 7 6 5 4 3 2 2 1 4 7 9 11 11 10 10 10 10 11 12 13 13 13 14 14 14 15 18 21 23 25 26 27 29 29 29 28 28 29 31 32 32 32
39 42 39 34 34 34 33 33 32 30 29 29 29 30 30 30 30 30 31 31 30 29 29 28 27 27 26 26 25 23 23 22 21 20 20 18 17 15 11 10 8 6 5 5 5 5 4 4 3 3 2 1 4 7 10 10 10 9 10 10 11 12 12 13 13 13 13 12 14 17 19 21 23 25 26 27 28 28 29 30 31 31 32 32 33
37 39 36 32 34 36 34 35 33 29 29 30 29 30 32 31 31 32 32 31 31 30 30 29 27 27 26 26 25 24 23 22 21 19 18 17 15 12 9 9 9 8 8 7 6 6 5 4 4 4 3 3 5 7 9 9 8 8 9 10 11 12 12 12 13 12 12 13 15 17 19 22 23 24 24 26 27 28 30 31 31 32 32 32 33
38 39 37 34 35 37 37 38 35 31 30 31 31 31 32 32 32 32 31 31 31 31 30 28 27 26 26 25 25 24 23 22 20 18 16 14 12 10 9 9 9 9 9 8 7 7 6 5 5 4 3 3 6 9 9 8 7 7 8 9 11 12 12 12 13 13 14 16 17 19 20 22 23 22 23 26 28 29 31 31 32 33 33 32 33
38 37 37 36 36 36 37 38 37 33 32 33 32 31 32 32 33 32 32 32 32 31 30 28 27 26 26 26 26 25 23 22 19 16 13 11 10 11 11 11 12 12 11 10 9 8 8 6 4 5 5 4 7 10 8 6 5 6 8 9 11 13 13 13 14 15 17 18 19 20 21 22 22 23 24 27 29 29 30 31 32 33 33 33 34
36 34 35 36 37 37 37 37 37 35 34 34 33 32 32 33 32 32 32 32 32 31 29 28 27 27 27 26 26 25 23 21 18 15 13 13 13 13 13 14 16 15 14 14 12 11 12 10 7 7 9 8 8 8 6 5 5 6 7 8 11 12 13 15 17 17 18 19 20 21 22 22 23 23 25 28 29 29 30 30 31 33 33 33 35
31 32 34 36 36 37 38 38 37 35 35 35 34 33 33 32 32 32 32 33 33 31 29 28 28 27 27 26 25 24 21 20 18 16 16 16 16 16 16 16 17 17 15 16 14 11 11 12 10 9 10 9 7 5 4 4 4 5 7 8 9 11 14 17 18 18 18 18 19 21 21 21 23 24 25 27 28 28 29 30 31 32 32 33 35
30 33 36 35 35 37 38 38 37 36 36 35 34 34 33 32 31 31 33 34 33 31 30 29 28 27 26 25 25 23 19 18 18 17 16 17 18 18 16 14 14 16 15 14 13 10 9 10 9 7 7 7 5 4 3 3 4 5 6 7 7 9 13 16 17 18 19 18 18 20 20 20 22 23 24 26 27 27 27 28 30 31 31 32 34
Wind_Direction
132 133 136 137 142 149 154 159 159 157 150 148 154 150 150 154 146 145 147 144 142 137 133 132 137 155 163 167 169 148 182 221 170 162 164 150 149 158 158 166 186 195 195 187 184 188 209 250 264 278 321 356 3 354 345 339 336 338 339 340 341 338 337 335 324 320 324 324 321 322 327 333 336 333 325 314 314 318 317 314 311 305 305 304 296
136 134 138 140 143 151 156 160 161 158 151 150 155 150 148 151 147 145 144 143 141 136 137 141 149 162 168 183 189 164 174 219 226 210 180 173 176 178 187 204 210 209 223 227 217 226 238 245 243 244 276 326 349 337 329 323 320 322 331 338 338 335 342 340 327 329 331 325 325 327 331 340 344 333 319 316 313 317 324 322 317 312 309 309 305
137 135 139 143 146 152 156 158 158 158 152 150 153 149 146 148 147 145 142 142 140 136 143 150 155 159 161 177 185 179 198 227 232 218 202 205 212 211 215 232 242 234 234 242 243 241 248 256 257 254 253 260 270 280 282 289 300 304 314 318 315 315 330 337 336 341 335 327 331 333 333 341 344 303 286 313 323 327 331 327 320 318 315 312 310
139 138 139 143 146 150 152 153 155 157 155 149 149 148 148 149 149 147 142 141 141 139 145 153 164 170 174 189 209 222 228 245 257 251 241 234 231 234 239 251 250 245 244 246 247 247 251 260 266 265 262 259 259 264 271 281 289 292 299 302 301 301 301 311 329 344 342 338 343 342 339 344 341 315 309 317 328 319 316 324 325 317 311 306 300
143 141 145 146 146 149 149 151 154 157 154 147 147 149 148 148 148 146 142 141 143 146 151 160 169 170 185 207 202 214 221 247 291 293 274 265 253 244 243 239 228 230 242 244 244 247 250 254 261 268 270 265 262 265 269 273 281 290 295 293 295 301 303 302 301 315 344 346 354 358 353 347 335 328 323 319 313 304 308 313 314 315 319 316 305
145 143 149 150 149 149 147 152 156 155 150 146 147 148 147 147 145 142 140 140 141 145 150 156 163 155 158 179 181 194 208 212 231 249 260 270 275 262 247 232 221 224 237 247 252 255 255 250 249 257 262 258 266 273 273 275 286 292 291 288 291 299 304 305 296 290 298 304 321 351 342 332 333 334 332 323 312 308 314 318 318 323 326 324 320
146 146 151 152 151 148 148 154 156 151 147 147 148 147 148 147 146 146 144 144 144 144 146 144 146 142 144 166 180 199 222 229 234 234 240 256 267 266 255 237 231 227 229 247 260 255 249 239 231 232 133 103 58 39 32 26 4 341 329 319 314 313 319 326 320 309 299 293 291 289 290 303 320 330 334 330 321 311 306 311 319 321 315 324 332
147 148 151 152 152 152 152 154 154 150 145 145 146 147 148 148 151 153 149 149 148 150 153 146 143 153 170 194 203 215 233 238 237 232 232 242 257 262 258 243 230 216 195 194 195 194 187 151 117 97 94 84 64 61 56 49 36 21 12 2 351 340 339 339 334 333 328 320 313 307 305 304 314 329 331 328 330 319 307 303 301 300 301 310 314
150 149 151 152 155 155 153 152 153 151 146 144 146 145 145 145 148 149 146 148 149 149 149 140 150 195 217 227 225 229 237 239 239 241 240 236 246 255 254 208 156 156 145 137 127 119 116 105 97 91 89 84 73 69 64 58 50 38 33 26 19 7 356 349 344 349 346 337 332 327 326 322 322 329 321 316 331 331 318 312 308 305 303 302 306
151 150 150 152 159 157 153 151 151 151 150 148 147 145 143 140 141 145 149 153 155 157 151 144 167 210 222 229 226 212 201 227 254 276 275 245 243 242 190 114 112 117 116 119 114 106 102 99 95 90 87 86 80 76 71 64 58 52 49 42 34 24 13 6 3 6 2 355 353 349 350 345 332 326 323 326 337 338 328 322 323 324 313 302 306
152 151 152 153 154 152 150 148 148 150 151 149 146 145 141 139 144 150 156 159 163 170 169 168 181 191 192 192 186 174 175 194 192 147 173 228 261 167 113 107 110 112 113 115 110 105 102 97 94 91 87 85 81 78 73 66 62 55 49 44 38 32 26 22 17 16 15 12 16 17 14 5 350 342 342 344 348 343 334 328 327 327 316 306 306
151 151 154 152 147 146 147 145 147 148 147 146 145 144 143 144 152 154 155 158 161 169 175 178 181 178 173 168 168 172 175 182 183 176 175 180 176 106 99 107 119 119 116 112 106 103 100 95 92 90 87 84 80 76 70 64 60 53 48 43 40 39 36 33 28 25 25 25 33 37 28 12 4 4 358 354 354 348 341 334 329 326 321 317 317
150 152 155 153 147 147 146 143 145 145 144 143 138 140 145 147 154 156 155 160 164 167 169 166 164 166 163 161 168 169 165 178 192 182 169 163 150 119 109 127 130 122 117 111 104 100 96 92 88 86 82 78 76 74 69 65 63 59 56 54 52 51 47 45 42 38 36 36 46 50 34 6 4 15 5 354 354 355 350 341 334 334 330 325 325
151 153 158 158 151 148 146 143 143 143 143 139 134 140 149 146 148 151 149 154 158 156 149 138 138 149 155 160 166 161 158 169 176 166 163 157 136 120 128 136 128 120 115 108 102 96 91 86 83 82 80 78 78 78 75 71 71 69 67 66 62 57 53 51 49 46 46 44 49 53 31 1 6 16 6 360 2 360 355 346 338 335 333 329 327
152 156 161 159 152 149 148 146 144 145 147 144 140 145 150 144 142 139 136 141 144 143 141 139 145 152 159 169 172 165 162 164 162 161 157 137 124 129 139 132 122 116 110 104 101 96 89 85 84 83 84 84 82 82 80 76 74 71 70 71 66 60 56 55 52 49 49 45 42 46 29 8 15 19 12 14 13 2 353 348 344 339 334 332 330
157 160 162 157 153 151 150 149 148 148 153 151 145 144 143 139 137 137 138 144 147 148 156 163 166 166 168 177 176 166 160 157 158 159 144 122 123 137 135 124 116 111 106 101 99 95 91 88 86 85 86 88 86 83 82 79 77 73 71 71 67 61 56 54 54 50 50 45 35 34 29 18 23 21 15 18 14 2 352 345 348 348 338 332 331
159 163 162 157 155 154 152 152 152 152 153 149 144 143 142 140 141 144 145 147 149 157 172 173 167 161 156 158 156 149 147 146 143 139 124 119 130 133 126 120 115 109 104 101 98 95 94 91 88 88 88 88 88 85 83 81 79 75 71 67 61 57 53 51 52 50 49 44 30 27 31 27 27 21 15 17 11 1 357 352 355 356 345 335 330
160 163 162 157 156 155 153 153 153 152 149 145 145 143 144 146 145 146 149 151 159 171 174 162 152 144 134 129 128 127 129 126 120 115 114 124 131 128 123 119 114 109 104 102 99 97 96 93 90 90 88 89 88 85 80 78 77 74 71 66 59 57 53 46 44 45 48 44 27 21 26 27 26 22 17 16 7 358 360 4 2 356 349 341 332
157 160 160 158 158 156 153 154 154 152 147 143 143 140 143 148 148 148 151 158 163 158 148 137 130 125 120 120 123 122 121 119 117 118 123 129 128 125 124 119 114 110 106 102 99 97 95 93 91 88 86 86 85 84 80 75 74 74 72 67 59 56 55 46 38 37 40 42 29 18 20 24 22 18 17 13 5 4 8 8 2 355 349 342 334
157 160 162 160 160 157 155 155 153 149 146 143 143 143 146 147 147 151 156 161 153 141 133 125 121 119 119 120 120 117 117 118 119 122 125 127 125 123 121 117 114 111 107 104 101 97 94 93 91 88 87 84 83 83 80 74 71 71 71 68 60 56 54 49 41 37 35 35 30 18 13 15 15 14 17 18 14 14 14 8 359 353 349 342 336
158 162 164 161 160 158 156 155 151 146 145 145 143 146 148 145 144 150 153 149 142 133 126 122 123 127 126 124 122 118 118 121 125 128 129 129 127 125 121 117 115 111 108 106 101 96 94 93 92 90 88 86 84 82 79 76 71 68 68 66 62 57 53 48 43 39 36 32 27 17 10 9 13 14 16 19 17 14 11 6 357 350 346 341 336
161 163 164 161 159 158 155 153 150 146 146 146 144 147 149 147 147 148 143 140 136 130 126 125 128 129 125 122 122 121 123 128 131 132 131 129 127 126 124 122 118 112 108 106 102 97 94 93 91 89 87 85 84 83 80 77 72 67 64 60 56 53 49 46 41 35 34 35 29 18 10 12 13 11 14 15 11 7 5 1 356 350 344 340 335
163 165 164 162 160 158 156 153 151 149 148 146 146 151 153 149 145 141 139 141 137 132 130 129 130 127 123 123 124 126 130 132 133 133 130 127 125 123 123 123 119 112 107 104 101 99 98 96 91 87 85 83 82 84 84 80 74 70 65 55 48 46 47 44 40 35 33 35 34 19 9 12 12 11 15 14 6 3 2 358 355 351 344 338 335
165 165 163 162 161 159 157 154 153 152 150 148 149 155 157 144 140 142 140 141 138 133 133 132 131 129 127 128 130 133 137 137 137 136 133 131 129 126 125 122 117 111 104 98 95 97 97 95 92 87 83 81 80 82 86 82 72 65 66 61 49 43 47 45 38 39 35 32 32 18 5 8 9 10 14 10 4 2 0 357 354 351 344 338 336
164 164 162 162 161 160 158 156 156 154 152 151 149 154 154 143 144 148 142 140 141 137 135 135 133 131 131 135 138 141 142 140 139 138 136 134 132 129 127 123 119 115 109 103 100 100 97 92 90 86 82 80 76 72 74 78 72 60 55 59 55 44 45 47 41 39 38 33 32 16 358 0 5 6 8 6 3 1 359 357 355 350 346 342 340
162 162 162 163 162 161 160 158 158 156 156 154 150 154 156 147 150 152 145 145 146 141 139 139 137 137 139 144 146 146 145 143 142 140 137 134 130 127 124 120 117 115 112 110 105 100 96 90 86 84 81 78 76 71 62 63 71 69 54 48 52 46 40 44 41 36 32 30 32 16 350 353 2 1 1 2 359 358 357 357 356 354 352 349 346
161 161 163 164 164 165 163 161 160 159 158 156 152 156 158 152 152 153 150 151 149 144 143 143 143 143 145 148 150 148 147 145 143 141 139 137 133 130 126 119 112 107 105 106 103 96 92 89 85 83 78 74 73 72 64 55 58 70 65 51 47 45 41 41 38 33 27 22 29 18 349 351 0 356 355 359 357 356 357 357 356 357 356 353 351
162 163 164 165 165 166 165 164 163 161 161 158 154 157 158 154 154 154 154 153 149 147 147 146 146 145 148 151 151 150 149 147 146 145 143 142 139 136 133 126 118 109 101 98 99 96 92 90 87 83 78 75 72 67 63 58 53 60 68 62 50 43 41 40 35 29 21 18 27 24 356 350 355 353 354 359 358 357 357 356 355 357 357 353 350
165 165 166 166 166 166 166 166 165 163 163 160 157 160 160 156 156 156 155 153 149 148 149 150 151 151 153 155 153 152 152 150 149 147 145 142 137 134 132 129 125 117 108 102 99 95 91 88 86 81 76 72 68 63 58 55 54 56 65 70 60 44 35 35 35 24 9 9 19 20 6 351 350 353 355 358 359 360 358 354 354 358 357 352 348
167 169 170 168 167 169 169 168 166 165 164 160 159 162 160 157 158 158 156 153 152 152 152 155 157 158 158 157 155 154 152 150 149 147 145 142 137 135 132 130 130 125 117 112 104 96 90 84 80 75 71 64 58 57 52 49 54 58 64 73 68 48 32 31 34 21 2 360 4 6 6 359 352 352 354 357 359 0 360 355 352 358 358 351 346
169 172 173 171 170 172 171 169 167 167 166 163 161 160 158 158 159 158 155 155 155 154 154 156 159 160 159 158 156 154 151 150 148 145 144 143 139 138 136 133 130 125 121 115 105 97 89 81 75 68 64 60 55 53 50 46 50 57 65 74 70 51 29 27 31 17 2 357 354 357 0 0 357 352 351 355 358 358 358 354 350 358 359 349 346
174 174 175 174 173 173 173 170 168 169 167 165 162 159 159 161 160 157 156 156 155 155 155 156 157 157 158 158 157 155 152 149 147 146 145 141 139 137 136 135 131 125 122 116 106 98 89 80 74 67 61 58 55 52 50 44 46 55 64 72 68 52 27 25 27 16 4 352 345 352 356 358 358 353 349 352 354 354 355 352 350 358 358 347 345
177 176 176 176 175 175 174 170 169 171 169 166 163 162 163 163 159 156 156 156 155 153 153 153 152 153 156 157 156 154 151 149 149 148 144 142 142 141 139 136 131 127 124 118 107 98 90 81 74 68 62 59 55 51 49 44 44 54 63 66 63 47 25 21 16 10 2 338 336 350 356 356 354 351 348 349 350 350 349 349 352 357 355 346 344
179 178 178 178 175 175 175 170 170 173 171 164 163 165 166 163 159 157 156 155 154 152 151 151 149 151 153 152 152 154 153 152 150 147 145 146 146 141 136 131 126 124 121 116 110 101 92 84 76 70 63 60 56 51 49 45 44 51 58 61 54 36 24 14 2 7 4 329 333 349 355 353 350 348 348 348 348 347 346 349 353 354 354 350 343
180 179 178 178 175 174 173 171 171 175 170 163 165 167 164 162 159 157 156 156 154 151 151 152 151 151 150 150 154 157 154 151 149 148 149 149 143 138 133 128 124 123 117 113 111 105 95 85 78 72 65 61 56 52 50 46 45 49 54 63 58 36 31 11 351 7 12 326 333 350 353 352 349 347 349 350 349 349 350 355 357 355 354 352 343
182 180 178 178 176 174 172 169 172 175 168 162 166 166 162 161 160 158 157 157 155 152 152 153 152 152 151 151 155 156 153 151 152 152 152 148 143 139 136 131 127 124 118 114 110 104 100 91 83 74 66 61 57 53 51 47 46 45 45 61 64 41 46 28 352 3 8 330 336 348 350 350 348 345 348 351 352 354 357 1 1 357 355 351 345
180 178 178 178 176 174 172 170 174 175 168 162 165 164 161 162 161 159 159 157 156 155 155 154 153 153 154 154 155 156 154 153 154 154 153 150 145 140 135 131 128 123 116 112 107 102 99 92 85 79 70 63 56 52 50 46 46 44 38 49 59 39 56 75 9 8 4 337 338 347 347 346 344 344 348 352 354 357 360 2 0 356 353 349 346
177 177 178 178 176 174 172 172 173 172 168 166 165 163 162 163 162 161 161 159 158 157 156 154 154 155 156 155 155 155 154 152 154 155 153 149 142 136 132 129 125 118 110 106 103 100 96 89 82 76 70 64 57 51 48 43 42 40 36 42 52 45 38 61 47 27 10 345 342 347 343 340 342 348 354 356 356 357 360 0 356 352 349 345 344
176 177 176 177 177 174 172 173 172 168 168 168 165 161 164 165 164 163 162 160 159 158 156 156 155 155 154 154 154 154 151 152 157 157 152 147 141 137 134 130 123 114 108 105 102 98 95 88 79 71 64 60 56 50 45 41 37 34 33 37 44 44 36 29 35 38 18 351 346 345 337 337 348 360 4 4 2 2 2 358 354 350 346 343 344
175 177 175 176 176 172 172 174 171 168 170 168 163 165 169 169 166 164 163 162 161 158 156 156 155 154 153 152 154 154 154 157 161 158 152 148 144 138 130 121 115 118 128 136 130 108 91 80 71 64 57 50 47 44 40 35 30 26 27 30 34 37 34 26 23 32 24 355 345 342 338 347 4 13 11 8 5 5 2 357 354 352 347 345 346
174 175 174 173 173 172 173 174 172 170 170 168 167 169 172 171 167 165 164 163 160 157 156 155 154 153 153 153 155 157 159 161 161 157 153 149 144 137 129 126 136 150 152 141 123 100 78 63 53 46 41 35 32 33 34 30 23 18 19 25 29 30 29 24 21 27 25 1 346 347 356 7 15 16 13 8 3 1 359 355 353 351 346 344 346
173 174 173 171 170 171 172 172 173 172 170 171 173 172 171 170 167 165 164 162 159 158 156 155 153 153 154 157 159 161 163 162 160 158 156 152 145 138 138 150 164 165 152 133 119 107 85 54 35 22 14 12 13 17 23 23 17 14 15 21 28 29 26 22 19 19 17 4 354 360 10 14 15 13 9 4 1 360 358 355 351 348 345 346 346
174 173 172 170 170 172 172 170 172 174 172 173 175 172 169 169 167 165 163 160 159 159 156 155 155 156 158 161 162 164 165 163 162 161 157 152 145 140 145 152 151 140 130 128 135 138 128 93 60 27 348 346 353 0 10 15 13 13 15 20 26 29 25 19 15 15 12 6 5 12 15 13 10 7 4 360 358 359 359 355 351 349 350 351 348
175 173 170 170 170 171 172 172 173 175 174 174 173 171 168 168 167 165 162 160 160 158 156 156 158 159 162 164 166 167 167 166 165 161 157 153 147 145 148 144 127 114 113 120 130 134 130 130 128 127 327 336 343 345 354 4 9 12 16 17 22 27 23 14 12 14 12 7 11 16 14 7 4 2 360 357 355 356 357 355 352 351 353 353 350
171 171 170 172 173 171 172 173 173 175 175 173 173 171 168 167 166 165 163 162 160 158 159 160 161 164 167 169 170 170 169 167 164 160 159 156 148 145 151 146 136 140 148 145 149 154 152 160 165 165 193 272 311 319 333 352 4 9 11 13 18 22 18 11 11 13 12 10 15 17 12 5 2 0 358 355 353 354 357 357 355 354 354 353 351
169 171 171 175 178 178 177 175 173 176 177 174 173 171 169 167 166 165 164 162 160 161 162 163 166 169 171 171 171 170 169 168 164 159 158 152 142 143 156 157 155 163 168 165 166 166 167 176 177 175 195 239 271 295 319 341 357 6 9 11 19 22 17 12 13 15 16 17 19 20 13 5 2 359 355 353 353 355 358 359 357 356 356 355 353
170 174 174 175 178 180 180 178 175 175 176 173 171 171 169 168 167 164 163 163 164 164 164 165 168 169 167 169 172 171 169 167 161 156 154 147 144 156 167 165 165 170 173 173 171 170 176 186 188 187 185 220 264 287 314 337 349 3 10 13 21 24 20 19 23 26 28 24 20 20 16 6 359 357 354 353 355 357 359 360 358 357 357 357 355
170 175 176 176 178 178 178 177 173 171 171 170 168 168 167 167 167 164 163 166 167 166 166 166 166 165 165 170 174 172 168 164 156 152 156 159 165 173 175 177 181 180 177 176 175 179 182 178 184 195 178 189 251 275 303 330 344 3 14 17 24 27 27 27 27 26 27 24 19 18 15 4 356 355 354 354 356 359 359 359 358 356 358 359 357
173 178 177 179 180 177 175 173 170 169 170 168 167 167 166 167 166 164 165 169 168 166 167 166 165 166 168 172 174 172 168 163 154 156 169 176 178 182 189 194 192 186 183 182 184 190 190 182 186 200 192 197 235 262 291 324 341 3 15 20 26 30 32 33 28 22 20 20 18 17 12 1 355 355 353 353 356 358 358 358 357 357 359 360 358
176 179 178 179 179 176 174 173 170 170 170 167 167 167 167 166 165 164 168 170 167 166 168 166 166 169 171 173 175 170 165 163 161 168 182 187 186 191 202 207 202 197 196 196 199 209 207 201 210 217 207 211 237 260 286 319 338 357 10 18 24 28 31 30 26 20 18 17 15 13 6 355 353 354 353 352 355 357 357 357 355 357 1 0 357
181 180 180 181 179 177 175 173 171 170 168 167 167 167 166 166 165 167 171 171 167 166 166 166 169 171 171 175 174 166 164 169 169 174 191 197 195 199 206 209 203 203 206 209 214 221 217 214 224 229 216 219 240 261 278 310 336 350 360 7 14 25 31 27 20 14 13 15 15 9 358 351 352 353 351 352 354 356 357 356 354 357 2 0 357